Flag Weather past 2 weeks in Luxembourg, Luxembourg

Now
41 °F

Partly sunny.


Feels Like: 37 °F
Forecast: 40 / 45 °F
Wind: 6 mph from Southeast

Location: Luxembourg Airport

Current Time: Nov 26, 2014 at 3:19:42 PM

Latest Report: Nov 26, 2014 at 2:50 PM


Visibility: 2 mi

Pressure: 29.92 "Hg

Humidity: 100%

Dew point: 41 °F

Location of LuxembourgLocation

Historic Weather in Luxembourg — Graph

°F

Luxembourg temperature yesterday

Maximum temperature yesterday: 46 °F (at 12:50 PM)
Minimum temperature yesterday: 39 °F (at 4:50 AM)
Average temperature yesterday: 42 °F

Past Weeks' High & Low Weather Summary

 TemperatureHumidityPressure
High54 °F (Nov 22, 2:50 PM)100% (Nov 11, 1:20 PM)30.27 "Hg (Nov 11, 1:20 PM)
Low36 °F (Nov 21, 5:20 AM)76% (Nov 19, 2:20 PM)29.53 "Hg (Nov 16, 12:50 PM)
Average44 °F94%29.90 "Hg
* Reported Nov 11 1:20 PM — Nov 26 1:50 PM, Luxembourg, Weather by CustomWeather, © 2014

Note: Actual official high and low records may vary slightly from our data, if they occured in-between our weather recording intervals... More about our weather records

Advertising

Luxembourg weather history for previous 24 hours

 ConditionsComfort  
Time TempWeatherWind HumidityBarometerVisibility
1:50 PM
Nov 26
41 °FPartly sunny.6 mph100%29.92 "Hg3 mi
1:20 PM41 °FFog.6 mph100%29.92 "Hg2 mi
12:50 PM41 °FSleet. Cloudy.6 mph100%29.95 "Hg1 mi
12:20 PM41 °FSleet. Cloudy.6 mph100%29.95 "Hg1 mi
11:50 AM41 °FSleet. Cloudy.5 mph100%29.95 "Hg1 mi
11:20 AM41 °FSleet. Cloudy.7 mph93%29.95 "Hg1 mi
10:50 AM41 °FLight rain. Fog.7 mph93%29.95 "Hg1 mi
10:20 AM41 °FLight rain. Fog.8 mph93%29.95 "Hg1 mi
9:50 AM41 °FLight rain. Fog.7 mph93%29.95 "Hg1 mi
9:20 AM41 °FLight rain. Fog.6 mph93%29.95 "Hg1 mi
8:50 AM41 °FFog.7 mph93%29.95 "Hg1 mi
8:20 AM41 °FFog.5 mph93%29.95 "Hg1 mi
7:50 AM41 °FFog.3 mph93%29.95 "Hg1 mi
7:20 AM41 °FFog.6 mph93%29.95 "Hg2 mi
6:50 AM41 °FLight rain. Fog.5 mph93%29.95 "Hg2 mi
6:20 AM41 °FFog.6 mph93%29.95 "Hg2 mi
5:50 AM41 °FFog.7 mph93%29.98 "Hg2 mi
5:20 AM41 °FFog.8 mph93%29.98 "Hg2 mi
4:50 AM41 °FPassing clouds.7 mph93%29.98 "Hg2 mi
4:20 AM41 °FPassing clouds.8 mph93%29.98 "Hg2 mi
3:50 AM41 °FPassing clouds.7 mph93%29.98 "Hg2 mi
3:20 AM41 °FQuite cool.8 mph93%30.01 "Hg2 mi
2:50 AM41 °FQuite cool.7 mph93%30.01 "Hg2 mi
2:20 AM41 °FQuite cool.8 mph93%30.01 "Hg2 mi
1:50 AM41 °FQuite cool.7 mph93%30.01 "Hg3 mi
1:20 AM41 °FQuite cool.8 mph93%30.04 "Hg3 mi
12:50 AM41 °FPassing clouds.9 mph93%30.04 "Hg3 mi
12:20 AM41 °FQuite cool.8 mph93%30.04 "Hg3 mi
11:50 PM
Nov 25
41 °FPassing clouds.8 mph93%30.04 "Hg4 mi
11:20 PM41 °FPassing clouds.9 mph93%30.07 "Hg4 mi
10:50 PM41 °FQuite cool.10 mph93%30.07 "Hg4 mi
10:20 PM41 °FPassing clouds.8 mph87%30.07 "Hg5 mi
9:50 PM39 °FPassing clouds.9 mph93%30.07 "Hg5 mi
9:20 PM39 °FPassing clouds.10 mph93%30.07 "HgN/A
8:50 PM39 °FPassing clouds.12 mph93%30.07 "HgN/A
8:20 PM39 °FPassing clouds.12 mph93%30.07 "HgN/A
7:50 PM39 °FPassing clouds.8 mph93%30.07 "HgN/A
7:20 PM41 °FPassing clouds.9 mph87%30.07 "HgN/A
6:50 PM41 °FPassing clouds.8 mph87%30.09 "HgN/A
6:20 PM41 °FPassing clouds.6 mph93%30.09 "HgN/A
5:50 PM41 °FClear.12 mph93%30.07 "Hg10 mi
5:20 PM43 °FPassing clouds.9 mph87%30.09 "HgN/A
4:50 PM43 °FPassing clouds.9 mph87%30.09 "HgN/A
4:20 PM45 °FPassing clouds.8 mph81%30.09 "HgN/A
3:50 PM45 °FSprinkles. Broken clouds.8 mph87%30.09 "HgN/A
3:20 PM45 °FLight rain. Broken clouds.9 mph81%30.09 "HgN/A
Weather by CustomWeather, © 2014

See weather overviewHow to use our weather pages